Regional Weather Roundup
Issued by NWS

Home | Current Version | Previous Version | Text Only | Print | Product List | Glossary On
Versions: 1 2 3 4 5 6 7 8 9 10 11 12 13 14 15 16 17 18 19 20 21
000
ASPQ40 PGUM 061412
RWRPQ
WEATHER ROUNDUP FOR THE MARIANAS AND MICRONESIA
NATIONAL WEATHER SERVICE TIYAN GU
1200 AM CHST WED DEC 07 2016

GUZ001>004-061500-
MARIANA ISLANDS-

CITY           SKY/WX    TMP DP  RH WIND       PRES   REMARKS
GUAM AIRPORT   PTCLDY    81  77  89 E8        29.87F
ANDERSEN AFB   NOT AVBL
ROTA AIRPORT   NOT AVBL
TINIAN AP      NOT AVBL
SAIPAN AP      LGT RAIN  81  77  89 E17       29.88S

$$

PMZ161-061500-
REPUBLIC OF PALAU-

CITY           SKY/WX    TMP DP  RH WIND       PRES   REMARKS
KOROR AP       CLOUDY    77  75  94 CALM      29.77F
KOROR WSO      CLOUDY    79  77  94 CALM      29.79F

$$

PMZ171>174-061500-
FEDERATED STATES OF MICRONESIA-

CITY           SKY/WX    TMP DP  RH WIND       PRES   REMARKS
YAP AIRPORT    MOCLDY    81  77  89 E9        29.78F
CHUUK AP       CLOUDY    81  79  94 VRB6      29.76F
POHNPEI AP     NOT AVBL
POHNPEI WSO    CLOUDY    79  75  89 E8        29.81S
KOSRAE AP      NOT AVBL

$$

PMZ181-061500-
REPUBLIC OF THE MARSHALL ISLANDS-

CITY           SKY/WX    TMP DP  RH WIND       PRES   REMARKS
KWAJALEIN AP   CLEAR     81  70  69 E14       29.78S
MAJURO AP      NOT AVBL
MAJURO WSO     CLOUDY    82  73  74 NE12      29.73F

$$





USA.gov is the U.S. government's official web portal to all federal, state and local government web resources and services.